This demonstration page uses our WeatherBlox Daily Observations layout. Learn more.

Left ArrowRight Arrow

Hourly Observations for August 2, 2021

Temp ( °F °C ) Dew Point ( °F °C ) Humidity (%) Winds ( mph kmh ) Pressure ( in mb ) Visibility ( mi km ) Precip ( " mm )
12:51 am 00:51 Clear 78 25.6 68 20 71 71 WSW 6 9 29.95 1014 10 16 N/A
1:51 am 01:51 Mostly Clear 77 25 68 20 74 74 NNW 5 7 29.95 1014 10 16 N/A
2:51 am 02:51 Clear 76 24.4 68 20 77 77 N N/A 29.95 1014 10 16 N/A
3:51 am 03:51 Cloudy 77 25 66 18.9 69 69 SE 6 9 29.96 1015 10 16 N/A
4:51 am 04:51 Clear 77 25 65 18.3 66 66 E 9 15 29.98 1015 10 16 N/A
5:51 am 05:51 Sunny 76 24.4 65 18.3 69 69 SE 5 7 30.00 1016 10 16 N/A
6:51 am 06:51 Sunny 80 26.7 65 18.3 60 60 E 8 13 30.01 1016 10 16 N/A
7:51 am 07:51 Sunny 82 27.8 64 17.8 55 55 E 8 13 30.03 1017 10 16 N/A
8:51 am 08:51 Sunny 85 29.4 65 18.3 51 51 ESE 6 9 30.02 1017 10 16 N/A
9:51 am 09:51 Sunny 87 30.6 66 18.9 50 50 SSW 6 9 30.01 1016 10 16 N/A
10:51 am 10:51 Sunny 88 31.1 65 18.3 46 46 SE 6 9 29.99 1016 10 16 N/A
11:51 am 11:51 Sunny 92 33.3 66 18.9 43 43 undefined N/A 29.95 1014 10 16 N/A
12:51 pm 12:51 Sunny 93 33.9 64 17.8 38 38 VRB 5 7 29.92 1013 10 16 N/A
1:51 pm 13:51 Sunny 96 35.6 64 17.8 35 35 VRB 5 7 29.89 1012 10 16 N/A
2:51 pm 14:51 Sunny 96 35.6 63 17.2 34 34 W 3 6 29.86 1011 10 16 N/A
3:51 pm 15:51 Sunny 97 36.1 62 16.7 32 32 VRB 6 9 29.84 1010 10 16 N/A
4:51 pm 16:51 Sunny 97 36.1 58 14.4 27 27 N 7 11 29.84 1010 10 16 N/A
5:51 pm 17:51 Partly Cloudy 96 35.6 53 11.7 23 23 NE 12 19 29.85 1011 10 16 N/A
6:51 pm 18:51 Sunny 87 30.6 61 16.1 42 42 SSE 13 20 29.88 1012 10 16 N/A
7:03 pm 19:03 Sunny 86 30 62 16.7 45 45 S 9 15 29.83 1010 10 16 N/A
7:51 pm 19:51 Clear 85 29.4 62 16.7 46 46 SSE 12 19 29.91 1013 10 16 N/A
8:51 pm 20:51 Clear 82 27.8 63 17.2 53 53 SSE 12 19 29.94 1014 10 16 N/A
9:51 pm 21:51 Clear 80 26.7 65 18.3 60 60 SSE 12 19 29.96 1015 10 16 N/A
10:51 pm 22:51 Clear 78 25.6 66 18.9 67 67 SE 6 9 29.94 1014 10 16 N/A
11:51 pm 23:51 Clear 77 25 66 18.9 69 69 S 8 13 29.93 1014 10 16 N/A

Powered by AerisWeather